TimeCST,TemperatureF,Dew PointF,Humidity,Sea Level PressureIn,VisibilityMPH,Wind Direction,Wind SpeedMPH,Gust SpeedMPH,PrecipitationIn,Events,Conditions,WindDirDegrees,DateUTC
12:15 AM,32.0,24.8,75,30.02,10.0,South,8.1,-,N/A,,Clear,180,2012-11-29 06:15:00
12:35 AM,30.2,24.8,80,30.02,10.0,South,8.1,-,N/A,,Clear,190,2012-11-29 06:35:00
12:55 AM,30.2,24.8,80,30.01,10.0,South,10.4,-,N/A,,Clear,190,2012-11-29 06:55:00
1:15 AM,32.0,24.8,75,30.01,10.0,SSW,9.2,-,N/A,,Clear,200,2012-11-29 07:15:00
1:35 AM,32.0,24.8,75,30.01,10.0,SSW,8.1,-,N/A,,Clear,210,2012-11-29 07:35:00
1:55 AM,30.2,24.8,80,30.00,10.0,South,6.9,-,N/A,,Clear,190,2012-11-29 07:55:00
2:15 AM,30.2,24.8,80,30.01,10.0,SSE,4.6,-,N/A,,Clear,160,2012-11-29 08:15:00
2:35 AM,28.4,23.0,80,30.01,10.0,SSE,5.8,-,N/A,,Clear,160,2012-11-29 08:35:00
2:55 AM,24.8,23.0,93,30.00,10.0,SSE,4.6,-,N/A,,Clear,150,2012-11-29 08:55:00
3:15 AM,24.8,23.0,93,30.00,10.0,SSE,4.6,-,N/A,,Clear,150,2012-11-29 09:15:00
3:35 AM,24.8,23.0,93,30.00,10.0,SSE,4.6,-,N/A,,Clear,150,2012-11-29 09:35:00
3:55 AM,23.0,21.2,93,30.00,9.0,SE,4.6,-,N/A,,Clear,140,2012-11-29 09:55:00
4:15 AM,21.2,19.4,93,30.00,8.0,Calm,Calm,-,N/A,,Clear,0,2012-11-29 10:15:00
4:35 AM,19.4,17.6,93,30.00,7.0,ESE,3.5,-,N/A,,Clear,110,2012-11-29 10:35:00
4:55 AM,19.4,17.6,93,29.99,7.0,ESE,4.6,-,N/A,,Clear,110,2012-11-29 10:55:00
5:15 AM,17.6,17.6,100,29.99,7.0,ESE,5.8,-,N/A,,Clear,110,2012-11-29 11:15:00
5:35 AM,19.4,19.4,100,29.99,7.0,ESE,4.6,-,N/A,,Clear,120,2012-11-29 11:35:00
5:55 AM,19.4,19.4,100,29.99,-9999.0,ESE,5.8,-,N/A,,Unknown,120,2012-11-29 11:55:00
6:15 AM,19.4,19.4,100,29.99,7.0,East,5.8,-,N/A,,Clear,100,2012-11-29 12:15:00
6:35 AM,17.6,17.6,100,29.99,6.0,East,4.6,-,N/A,,Clear,100,2012-11-29 12:35:00
6:55 AM,17.6,17.6,100,29.99,6.0,SE,3.5,-,N/A,,Clear,130,2012-11-29 12:55:00
7:15 AM,17.6,17.6,100,29.99,7.0,East,4.6,-,N/A,,Clear,100,2012-11-29 13:15:00
7:35 AM,17.6,15.8,93,29.99,6.0,ESE,4.6,-,N/A,,Clear,110,2012-11-29 13:35:00
7:55 AM,17.6,15.8,93,29.99,6.0,Calm,Calm,-,N/A,,Clear,0,2012-11-29 13:55:00
8:15 AM,19.4,17.6,93,29.99,5.0,NE,3.5,-,N/A,,Clear,50,2012-11-29 14:15:00
8:35 AM,23.0,21.2,93,30.00,6.0,Calm,Calm,-,N/A,,Clear,0,2012-11-29 14:35:00
8:55 AM,26.6,24.8,93,29.99,5.0,ENE,4.6,-,N/A,,Clear,60,2012-11-29 14:55:00
9:15 AM,28.4,26.6,93,30.00,3.0,NE,3.5,-,N/A,,Clear,50,2012-11-29 15:15:00
9:35 AM,32.0,28.4,87,30.01,4.0,Calm,Calm,-,N/A,,Clear,0,2012-11-29 15:35:00
10:15 AM,35.6,28.4,75,30.00,9.0,ENE,12.7,-,N/A,,Clear,60,2012-11-29 16:15:00
10:35 AM,37.4,28.4,70,29.99,9.0,ENE,11.5,-,N/A,Rain,Light Rain,70,2012-11-29 16:35:00
10:55 AM,39.2,28.4,65,29.99,9.0,East,10.4,-,N/A,,Clear,80,2012-11-29 16:55:00
11:15 AM,39.2,28.4,65,30.00,9.0,East,10.4,-,N/A,Rain,Light Rain,90,2012-11-29 17:15:00
11:35 AM,41.0,28.4,61,29.99,9.0,East,10.4,-,N/A,,Clear,90,2012-11-29 17:35:00
11:55 AM,42.8,28.4,57,29.98,9.0,East,9.2,-,N/A,,Clear,90,2012-11-29 17:55:00
12:15 PM,42.8,28.4,57,29.97,9.0,ESE,9.2,-,N/A,,Clear,120,2012-11-29 18:15:00
12:35 PM,44.6,28.4,53,29.96,9.0,ENE,6.9,-,N/A,,Clear,70,2012-11-29 18:35:00
12:55 PM,44.6,28.4,53,29.96,9.0,ESE,8.1,-,N/A,,Clear,120,2012-11-29 18:55:00
1:15 PM,46.4,28.4,50,29.95,9.0,ESE,5.8,-,N/A,,Clear,120,2012-11-29 19:15:00
1:35 PM,46.4,30.2,53,29.94,9.0,East,6.9,-,N/A,,Clear,90,2012-11-29 19:35:00
1:55 PM,46.4,30.2,53,29.94,9.0,East,8.1,-,N/A,,Clear,90,2012-11-29 19:55:00
2:15 PM,46.4,30.2,53,29.93,9.0,East,8.1,-,N/A,,Clear,100,2012-11-29 20:15:00
2:35 PM,46.4,30.2,53,29.93,9.0,ESE,9.2,-,N/A,,Clear,110,2012-11-29 20:35:00
2:55 PM,46.4,30.2,53,29.92,9.0,East,9.2,-,N/A,Rain,Light Rain,100,2012-11-29 20:55:00
3:15 PM,46.4,30.2,53,29.93,9.0,East,8.1,-,N/A,,Clear,80,2012-11-29 21:15:00
3:35 PM,46.4,28.4,50,29.93,9.0,East,8.1,-,N/A,Rain,Light Rain,80,2012-11-29 21:35:00
3:55 PM,46.4,30.2,53,29.92,9.0,East,9.2,-,N/A,Rain,Light Rain,80,2012-11-29 21:55:00
4:15 PM,44.6,28.4,53,29.92,9.0,East,10.4,-,N/A,,Clear,80,2012-11-29 22:15:00
4:35 PM,42.8,28.4,57,29.92,9.0,East,9.2,-,N/A,Rain,Light Rain,90,2012-11-29 22:35:00
4:55 PM,41.0,28.4,61,29.92,9.0,East,8.1,-,N/A,Rain,Light Rain,80,2012-11-29 22:55:00
5:15 PM,39.2,26.6,61,29.94,9.0,ENE,6.9,-,N/A,Rain,Light Rain,70,2012-11-29 23:15:00
5:35 PM,33.8,24.8,70,29.94,10.0,NE,8.1,-,N/A,,Clear,50,2012-11-29 23:35:00
5:55 PM,32.0,24.8,75,29.94,10.0,ENE,11.5,-,N/A,,Clear,70,2012-11-29 23:55:00
6:15 PM,37.4,26.6,65,29.95,10.0,ENE,8.1,-,N/A,,Clear,70,2012-11-30 00:15:00
6:35 PM,35.6,26.6,70,29.95,10.0,ENE,8.1,-,N/A,,Partly Cloudy,60,2012-11-30 00:35:00
6:55 PM,35.6,26.6,70,29.95,9.0,ENE,9.2,-,N/A,,Partly Cloudy,70,2012-11-30 00:55:00
7:15 PM,37.4,26.6,65,29.96,10.0,ENE,9.2,-,N/A,Snow,Light Snow,70,2012-11-30 01:15:00
7:35 PM,37.4,26.6,65,29.95,10.0,ENE,11.5,-,N/A,,Mostly Cloudy,70,2012-11-30 01:35:00
7:55 PM,37.4,26.6,65,29.95,10.0,East,11.5,-,N/A,,Scattered Clouds,80,2012-11-30 01:55:00
8:15 PM,37.4,26.6,65,29.94,10.0,East,12.7,18.4,N/A,,Scattered Clouds,80,2012-11-30 02:15:00
8:35 PM,37.4,28.4,70,29.94,10.0,East,10.4,-,N/A,,Scattered Clouds,80,2012-11-30 02:35:00
8:55 PM,35.6,26.6,70,29.95,10.0,East,9.2,-,N/A,,Mostly Cloudy,90,2012-11-30 02:55:00
9:15 PM,35.6,26.6,70,29.97,-9999.0,ENE,5.8,-,N/A,,Mostly Cloudy,70,2012-11-30 03:15:00
9:35 PM,35.6,26.6,70,29.95,10.0,ENE,9.2,-,N/A,,Mostly Cloudy,70,2012-11-30 03:35:00
9:55 PM,35.6,28.4,75,29.95,10.0,ENE,12.7,-,N/A,,Mostly Cloudy,70,2012-11-30 03:55:00
10:15 PM,33.8,26.6,75,29.96,9.0,ENE,10.4,-,N/A,,Partly Cloudy,60,2012-11-30 04:15:00
10:35 PM,32.0,26.6,80,29.94,9.0,East,9.2,-,N/A,,Clear,80,2012-11-30 04:35:00
10:55 PM,32.0,26.6,80,29.94,9.0,ENE,12.7,-,N/A,,Clear,70,2012-11-30 04:55:00
11:15 PM,32.0,26.6,80,29.93,8.0,ENE,11.5,-,N/A,,Clear,70,2012-11-30 05:15:00
11:35 PM,30.2,26.6,86,29.94,8.0,ENE,9.2,-,N/A,,Clear,70,2012-11-30 05:35:00
11:55 PM,30.2,26.6,86,29.94,8.0,ENE,10.4,-,N/A,,Clear,60,2012-11-30 05:55:00